Terminal Aerodrome Forecast
Issued by NWS Pueblo, CO

Home | Current Version | Previous Version | Text Only | Print | Product List | Glossary On
Versions: 1 2 3 4 5 6 7 8 9 10 11 12 13 14 15 16 17 18 19 20 21 22 23 24 25 26 27 28 29 30 31 32 33 34 35
000
FTUS45 KPUB 251121
TAFALS
TAF
KALS 251121Z 2512/2612 VRB05KT P6SM FEW060 FEW090 SCT110
     FM251800 25011KT P6SM VCTS FEW050 SCT070CB BKN100
     FM252100 30013KT P6SM VCTS FEW050 SCT070CB BKN100
     FM260100 VRB05KT P6SM FEW040 SCT070 BKN120=

USA.gov is the U.S. government's official web portal to all federal, state and local government web resources and services.